weather.gov     
National Weather Service

Regional Weather Roundup
NWS Homepage
This page is being discontinued on March 12, 2014.
The same data is available at this site. Please update your bookmarks.
Thank you, and we apologize for the inconvenience.
Please send an email to SR-SRH.Webmaster@noaa.gov with any concerns.


Current Version
Previous Version:    01  02  03  04  05  06  07  08  09  10  11  12  13  14  15  16  17  18  19  20  21  22  23  24  
[Printable]
232
ASUS44 KSJT 241510
RWRSJT
WEST CENTRAL TEXAS REGIONAL WEATHER ROUNDUP
NATIONAL WEATHER SERVICE SAN ANGELO TX
1000 AM CDT FRI OCT 24 2014

NOTE: "FAIR" INDICATES FEW OR NO CLOUDS BELOW 12,000 FEET WITH NO
SIGNIFICANT WEATHER AND/OR OBSTRUCTIONS TO VISIBILITY.

TXZ049-054-064>066-071>073-076>078-098-099-113-114-127-128-139-140-
154-155-168>170-241600
...LOCATIONS ACROSS WEST CENTRAL TEXAS...

CITY           SKY/WX    TMP DP  RH WIND       PRES   REMARKS
SAN ANGELO     SUNNY     66  60  81 S7        30.19R
ABILENE        SUNNY     68  61  78 SW6       30.17R
DYESS AFB      SUNNY     71  61  72 VRB1      30.16R
JUNCTION       SUNNY     63  57  81 CALM      30.20R
SWEETWATER     SUNNY     67  63  85 SW10      30.21S
BROWNWOOD      SUNNY     68  61  77 SW3       30.19R
COLEMAN        SUNNY     68  62  81 S5        30.19R
SONORA         SUNNY     63  59  88 CALM      30.25R
OZONA          CLOUDY    57  55  94 CALM      30.24R FOG
BRADY          SUNNY     72  57  60 S8        30.19R
$$

TEXAS PANHANDLE/OKLAHOMA PANHANDLE

CITY           SKY/WX    TMP DP  RH WIND       PRES   REMARKS
AMARILLO       SUNNY     59  54  83 SW7       30.17R
BORGER         SUNNY     55  52  89 W3        30.14R FOG
CANADIAN       FOG       58  57  99 CALM      30.11S VSB<1/4
DALHART        SUNNY     59  46  62 NW8       30.19R
DUMAS          SUNNY     60  50  68 W7        30.16R
GUYMON         NOT AVBL
HEREFORD       SUNNY     61  56  83 S6        30.19R
PAMPA          SUNNY     62  56  83 W7        30.16R
PERRYTON       SUNNY     60  58  96 SW6       30.12S
$$

SOUTHERN PANHANDLE/SOUTH PLAINS/ROLLING PLAINS

CITY           SKY/WX    TMP DP  RH WIND       PRES   REMARKS
LUBBOCK        SUNNY     63  57  81 SW9       30.19R
SNYDER         FOG       59  59  99 SW5       30.19R VSB<1/4
CHILDRESS      SUNNY     65  60  84 W8        30.13R
SEMINOLE       SUNNY     63  60  90 SW7       30.22R
$$

PERMIAN BASIN

CITY           SKY/WX    TMP DP  RH WIND       PRES   REMARKS
MIDLAND        SUNNY     65  60  84 S8        30.19R
ODESSA         SUNNY     66  61  84 S7        30.21R
WINK           CLOUDY    60 N/A N/A SE3       30.19R
$$

FAR WEST/SOUTHWEST MOUNTAINS/TRANS PECOS

CITY           SKY/WX    TMP DP  RH WIND       PRES   REMARKS
ALPINE         SUNNY     67  57  69 SW3       30.34R
DRYDEN           N/A     65  64  97 SW8       30.19R
EL PASO        SUNNY     62  51  67 N5        30.26R
FORT STOCKTON  SUNNY     70  58  65 SW12      30.20R
GUADALUPE PASS SUNNY     59  48  67 W12       30.33R
MARFA          SUNNY     61  57  88 CALM      30.34R
PECOS          FOG       57  56  97 CALM      30.20R VSB 1/4
$$

DALLAS/FORT WORTH METROPLEX

CITY           SKY/WX    TMP DP  RH WIND       PRES   REMARKS
DFW AIRPORT    MOSUNNY   67  55  65 S9        30.17R
FTW MEACHAM    PTSUNNY   70  56  61 SE9       30.16R
DAL-EXECUTIVE  PTSUNNY   67  54  63 S8        30.17R
GRAND PRAIRIE  PTSUNNY   66  55  68 MISG      30.18R
ADDISON        NOT AVBL
MESQUITE       SUNNY     64  54  68 S8        30.19R
LANCASTER      SUNNY     64  52  64 S6        30.20R
$$

NORTH CENTRAL TEXAS

CITY           SKY/WX    TMP DP  RH WIND       PRES   REMARKS
SHRMAN/DENISON SUNNY     67  59  74 S10       30.17S
GAINESVILLE    SUNNY     67  57  70 S13       30.18R
BRIDGEPORT     SUNNY     67  59  76 E3        30.17R
DENTON         PTSUNNY   67  56  67 S13       30.16R
WAXAHACHIE     SUNNY     66  55  67 S8        30.19S
GRANBURY       SUNNY     71  58  64 S5        30.18R
$$

WESTERN NORTH TEXAS

CITY           SKY/WX    TMP DP  RH WIND       PRES   REMARKS
WICHITA FALLS  MOSUNNY   69  61  75 S10       30.12R
VERNON         SUNNY     70  61  73 SW9       30.12R
BRECKENRIDGE   SUNNY     72  61  69 SW6       30.16S HAZE
COMANCHE       SUNNY     71  63  76 SW7       30.18R
$$

CENTRAL AND SOUTH CENTRAL TEXAS

CITY           SKY/WX    TMP DP  RH WIND       PRES   REMARKS
AUSTIN/BERGSTM MOSUNNY   66  58  75 CALM      30.19R
WACO           SUNNY     68  55  63 S8        30.18R
HILLSBORO      SUNNY     69  52  55 SE10      30.18S
TEMPLE         MOSUNNY   66  54  63 S10       30.18R
KILLEEN-GRAY   SUNNY     69  57  66 S7        30.18R
FORT HOOD      SUNNY     71  56  58 SE5       30.18R
GEORGETOWN     SUNNY     66  57  72 CALM      30.19R
LAGO VISTA     FAIR      70  58  64 S3        30.20R
SAN MARCOS     SUNNY     68  54  60 S3        30.20R
NEW BRAUNFELS  SUNNY     70  58  65 SE3       30.18R
RANDOLPH AFB   SUNNY     70  57  63 E2        30.19R
SAN ANTONIO    SUNNY     72  60  66 CALM      30.19R
STINSON        SUNNY     71  58  63 CALM      30.17R
PLEASANTON     NOT AVBL
LA GRANGE      SUNNY     68  58  70 CALM      30.17R
GIDDINGS       MOSUNNY   66  56  69 CALM      30.23R
$$

EAST TEXAS

CITY           SKY/WX    TMP DP  RH WIND       PRES   REMARKS
PARIS          CLOUDY    61  48  63 S5        30.20R
CLARKSVILLE    NOT AVBL
TYLER          MOSUNNY   64  53  67 S6        30.19R
LONGVIEW       SUNNY     62  52  69 VRB3      30.19R
PALESTINE      CLOUDY    61  55  81 CALM      30.21R
NACOGDOCHES    SUNNY     61  48  63 CALM      30.20R
$$

TEXAS HILL COUNTRY AND EDWARDS PLATEAU

CITY           SKY/WX    TMP DP  RH WIND       PRES   REMARKS
LLANO          NOT AVBL
HORSESHOE BAY  FAIR      71  58  63 CALM      30.19R
KERRVILLE      SUNNY     64  59  84 CALM      30.21R
FREDERICKSBRG  SUNNY     65  59  81 CALM      30.20R
ROCKSPRINGS    SUNNY     68  59  73 SE6       30.24R
HONDO          SUNNY     68  60  75 CALM      30.20R
UVALDE         SUNNY     70  63  77 CALM      30.20R
DEL RIO        SUNNY     68  60  75 SE7       30.17R
$$

SOUTHEAST TEXAS

CITY           SKY/WX    TMP DP  RH WIND       PRES   REMARKS
COLLEGE STN    SUNNY     64  54  69 SE6       30.19R
CALDWELL       MOSUNNY   64  55  72 CALM      30.23R
CROCKETT       SUNNY     64  55  72 SE3       30.22R
BRENHAM        SUNNY     66  55  67 CALM      30.20S
HUNTSVILLE     SUNNY     64  51  62 CALM      30.19R
CONROE         SUNNY     62  52  69 CALM      30.19R
HOUSTON BUSH   SUNNY     64  53  67 NE5       30.18R
HOUSTON HOBBY  SUNNY     66  55  67 NE5       30.17R
PERLAND        SUNNY     67  53  61 NE7       30.18R
WHARTON        SUNNY     68  57  69 CALM      30.18R
$$

THE UPPER TEXAS COAST

CITY           SKY/WX    TMP DP  RH WIND       PRES   REMARKS
ORANGE         SUNNY     60  55  83 CALM      30.18S
PORT ARTHUR    SUNNY     64  53  67 NE5       30.16R
GALVESTON      SUNNY     69  56  62 N9        30.16R
ANGLETON       SUNNY     66  59  78 NE8       30.16R
BAY CITY         N/A     67  62  82 NE3       30.16R
$$

TEXAS COASTAL BEND, RIO GRANDE PLAINS DEEP SOUTH TEXAS

CITY           SKY/WX    TMP DP  RH WIND       PRES   REMARKS
VICTORIA       SUNNY     70  58  65 NE3       30.17R
BEEVILLE       FAIR      72  61  68 NE3       30.16R
ROCKPORT       SUNNY     75  63  66 N8        30.15R
PORT ARANSAS   SUNNY     74  65  71 NE8       30.14R
PORT LAVACA    SUNNY     69  60  70 NE9       30.16R
CORPUS CHRISTI SUNNY     73  66  78 N6        30.15R
KINGSVILLE NAS SUNNY     75  68  78 N6        30.16R
COTULLA        SUNNY     74  62  66 VRB5      30.17R
LAREDO         SUNNY     74  65  73 CALM      30.20R
BROWNSVILLE    SUNNY     78  68  71 N8        30.14R
PORT ISABEL    SUNNY     78  67  68 N7        30.13R
HEBBRONVILLE   SUNNY     73  64  73 CALM      30.18R
MCALLEN        SUNNY     75  65  70 N3        30.16R
WESLACO        SUNNY     74  64  72 N3        30.15R
FALFURRIAS     SUNNY     72  65  79 NE3       30.15R
EDINBURG       SUNNY     73  66  79 N3        30.16R
$$




U.S. Dept. of Commerce
NOAA National Weather Service
1325 East West Highway
Silver Spring, MD 20910
E-mail: w-nws.webmaster@noaa.gov
Page last modified: May 16, 2007
NATIONAL WEATHER SERVICE: for Safety, for Work, for Fun - FOR LIFE